ONEWEB-0067, 45425

Orbit data source: Space-Track

ONEWEB-0067, 45425 is a payload satellite owned by One Web (UK) in LEO that was launched on Sat, 21 Mar 2020 UTC via a SOYUZ-2-1B launch vehicle from the Tyuratam Missile And Space Complex (TTMTR). Payload-class satellites include a variety of spacecraft equipped with specific instruments for various scientific and technological missions. These include communications satellites like Starlink; space stations such as the ISS; scientific satellites like the Hubble; Earth observation satellites from companies like Planet Labs, Umbra, and HawkEye 360; GPS; miniature CubeSats for education and research; and military/defense satellites.

Loading next visibility...
Identifier
45425, 2020-020B
Orbit
LEO
Country
Flag of UKUK
Related business
Manufacturer
One Web
Mission
Operational Commercial Communications
Bus & Motor
ARROW, Unknown motor
Mass
148 kg wet, ~140 kg dry
Launch date (UTC)
2020-03-21 (6 years ago)
Launch vehicle
SOYUZ-2-1B
Launch site
Tyuratam Missile And Space Complex (TTMTR)
Object type
Payload
Rocket body
Debris
Shape & HBR
Trap Box + 2 Pan, 6.7 m
Radar Cross Section
3.464 m², Large (>1 m²)

Expand to show TLE details & history
Last TLE update: 10 hours ago

TLE from 10 hours ago
0 ONEWEB-0067
1 45425U 20020B   26254.78081478 -.00000190  00000-0 -57137-3 0  9994
2 45425  87.8985   3.7905 0001901 105.1238 255.0101 13.11425190314089
Epoch: 2026-09-11T18:44Z
TLE epoch observation values (Epoch: 2026-09-11T18:44:22.396Z)
Latitude
0.00002°
Longitude
91.89793°
Altitude
1,220.914 km
Speed
7.244 km/s
True Right ascension
00h 15m 09s
True Declination
0° 00' 00"
Sunlit
Object was in full shadow at epoch
Visualization orbit readout
Latitude
Unknown
Longitude
Unknown
Altitude
Unknown
Speed
Unknown
Apparent Right ascension
Unknown
Apparent Declination
Unknown
Sunlit
N/A
Visualization observer readout
Local Sidereal Time
20:52:40
Azimuth
Unknown
Elevation
Unknown
Doppler factor
Unknown
Orbital elements
Apogee altitude
1,216.212 km
Perigee altitude
1,213.326 km
Semi-major axis
7,592.906 km
Eccentricity
0.00019
Inclination
87.8985°
RAAN
3.7905°
Arg. of periapsis
105.1238°
True anomaly
254.98906°
Mean anomaly
255.0101°
Eccentric anomaly
254.99958°
Mean motion
3.28043 °/min
Orbital period
109.74 mins
BSTAR
-0.00057137
Loading maneuver chart data...
Computing Atmospheric mass density...
Loading historical data...
Loading historical data...
Loading historical data...
Loading historical data...
Loading historical data...
Loading historical data...
Loading historical data...

Documentation

Showing up to 5 results
|